Showing default

APRIZESAT 9, 40018

Orbit data source: Space-Track

APRIZESAT 9, 40018 is a payload satellite owned by SpaceQuest (US) in SSO that was launched on Thu, 19 Jun 2014 UTC via a DNEPR launch vehicle from the Orenburg, Russia (OREN). Payload-class satellites include a variety of spacecraft equipped with specific instruments for various scientific and technological missions. These include communications satellites like Starlink; space stations such as the ISS; scientific satellites like the Hubble; Earth observation satellites from companies like Planet Labs, Umbra, and HawkEye 360; GPS; miniature CubeSats for education and research; and military/defense satellites.

Loading next visibility...
Identifier
40018, 2014-033J
Orbit
SSO
Country
Flag of USUS
Related business
Manufacturer
SpaceQuest
Mission
Operational Commercial Communications
Bus & Motor
APRIZE, Unknown motor
Mass
14 kg wet, 14 kg dry
Launch date (UTC)
2014-06-19 (12 years ago)
Launch vehicle
DNEPR
Launch site
Orenburg, Russia (OREN)
Object type
Payload
Rocket body
Debris
Shape & HBR
Box + 1 Ant, 0.1 m
Radar Cross Section
0.060 m², Medium (>0.1 m² and < 1m²)

Expand to show TLE details & history
Last TLE update: 10 hours ago

TLE from 10 hours ago
0 APRIZESAT 9
1 40018U 14033J   26124.08876007  .00000495  00000-0  80402-4 0  9991
2 40018  97.8994 258.3816 0065716 343.2660  16.6380 14.74163923637069
Epoch: 2026-05-04T02:07Z
TLE epoch observation values (Epoch: 2026-05-04T02:07:48.870Z)
Latitude
0.00001°
Longitude
4.445°
Altitude
606.597 km
Speed
7.58 km/s
True Right ascension
17h 13m 31s
True Declination
0° 00' 00"
Sunlit
Object was in full shadow at epoch
Visualization orbit readout
Latitude
Unknown
Longitude
Unknown
Altitude
Unknown
Speed
Unknown
Apparent Right ascension
Unknown
Apparent Declination
Unknown
Sunlit
N/A
Visualization observer readout
Local Sidereal Time
20:13:34
Azimuth
Unknown
Elevation
Unknown
Doppler factor
Unknown
Orbital elements
Apogee altitude
691.007 km
Perigee altitude
598.703 km
Semi-major axis
7,022.992 km
Eccentricity
0.00657
Inclination
97.8994°
RAAN
258.3816°
Arg. of periapsis
343.266°
True anomaly
16.85533°
Mean anomaly
16.638°
Eccentric anomaly
16.74649°
Mean motion
3.68774 °/min
Orbital period
97.62 mins
BSTAR
0.000080402
Loading maneuver chart data...
Computing Atmospheric mass density...
Loading historical data...
Loading historical data...
Loading historical data...
Loading historical data...
Loading historical data...
Loading historical data...
Loading historical data...

Documentation

Showing up to 5 results
|